Regional Weather Roundup
Issued by NWS

Home | Current Version | Previous Version | Text Only | Print | Product List | Glossary On
Versions: 1 2 3 4 5 6 7 8 9 10 11 12 13 14 15 16 17 18 19 20 21 22 23 24 25 26 27 28 29 30 31 32 33 34 35 36 37 38 39 40 41 42 43 44 45 46 47 48 49 50
000
ASUS43 KDMX 281807
RWRIA

WEATHER ROUNDUP FOR IOWA
NATIONAL WEATHER SERVICE DES MOINES IA
100 PM CDT SAT MAR 28 2015

NOTE: "FAIR" INDICATES FEW OR NO CLOUDS BELOW 12,000 FEET WITH NO
SIGNIFICANT WEATHER AND/OR OBSTRUCTIONS TO VISIBILITY.

* - THESE STATIONS ARE NOT NWS STATIONS...THUS NOT UNDER NWS
QUALITY CONTROL.  THEY ALSO DO NOT REPORT WEATHER SUCH
AS PRECIPITATION OR FOG.

IAZ001>003-012>014-020>022-031>034-043>046-281900-
   NORTHWEST IOWA

CITY           SKY/WX    TMP DP  RH WIND       PRES   REMARKS
CARROLL *      MOSUNNY   45  23  42 SE16G22   30.17F
CHEROKEE *     MOSUNNY   45  28  50 S13G20    30.15F
DENISON *      SUNNY     45  25  45 S16       30.13F
LE MARS *      SUNNY     46  25  42 SE16      30.13F
ORANGE CITY *  SUNNY     45  23  42 S12G21    30.12F
SHELDON *      MOSUNNY   43  28  56 S15G24    30.12F
SIOUX CITY     SUNNY     49  25  39 S15G26    30.13F
6HR MIN TEMP:  30; 6HR MAX TEMP:  49;

SPENCER        MOSUNNY   41  27  57 S17G24    30.16F
6HR MIN TEMP:  30; 6HR MAX TEMP:  43;

STORM LAKE *   MOSUNNY   43  27  52 SE16G23   30.15F
$$

IAZ055>058-069>071-079>083-090>094-281900-
   SOUTHWEST IOWA

CITY           SKY/WX    TMP DP  RH WIND       PRES   REMARKS
ATLANTIC *     MOSUNNY   46  27  46 SE14G22   30.17S
AUDUBON *      SUNNY     46  25  42 S13       30.17F
CLARINDA *     SUNNY     48  30  49 SE12      30.19F
COUNCIL BLFS * SUNNY     46  28  49 SE13G20   30.15F
CRESTON *      MOSUNNY   45  27  49 SE14G22   30.19F
HARLAN  *      MOSUNNY   45  27  49 SE14G20   30.19F
LAMONI         MOSUNNY   43  24  47 SE7       30.21F
6HR MIN TEMP:  32; 6HR MAX TEMP:  43;

RED OAK *      SUNNY     48  27  43 SE14G20   30.17F
SHENANDOAH *   SUNNY     48  28  46 SE15G21   30.17F
$$

IAZ047>049-059>061-072>074-084-281900-
   CENTRAL IOWA

CITY           SKY/WX    TMP DP  RH WIND       PRES   REMARKS
AMES           SUNNY     43  14  31 SE16G22   30.22F
6HR MIN TEMP:  28; 6HR MAX TEMP:  44;

ANKENY *       SUNNY     45  14  29 SE13      30.22F
CHARITON *     SUNNY     45  16  31 SE15G21   30.22F
DES MOINES     MOSUNNY   46  12  25 S13       30.22F
6HR MIN TEMP:  32; 6HR MAX TEMP:  46;

GRINNELL*      SUNNY     41  14  33 SE13      30.25F
KNOXVILLE *    SUNNY     45  12  26 SE9G17    30.22F
MARSHALLTOWN   SUNNY     42  15  33 SE10G20   30.24F
6HR MIN TEMP:  18; 6HR MAX TEMP:  42;

PELLA *        SUNNY     44  19  37 SE12G17   30.25F
PERRY *          N/A     45  19  36 SE14G23   30.20F
$$

IAZ004>006-015-016-023>025-035-036-281900-
   NORTH CENTRAL IOWA

CITY           SKY/WX    TMP DP  RH WIND       PRES   REMARKS
ALGONA *       SUNNY     41  19  42 S15G21    30.19F
CLARION *      SUNNY     41  23  48 S15G23    30.21F
ESTHERVILLE    CLOUDY    41  22  46 S22       30.17F
6HR MIN TEMP:  28; 6HR MAX TEMP:  41;

FORT DODGE *   MOSUNNY   45  18  33 S15       30.20F
MASON CITY     SUNNY     40  17  39 SE14G20   30.23F WCI  32
6HR MIN TEMP:  23; 6HR MAX TEMP:  41;

FOREST CITY *  SUNNY     37  18  44 SE13G20   30.21F WCI  29
IOWA FALLS *     N/A     41  17  37 SE8G18    30.24S
$$

IAZ007>011-017>019-026>030-037>042-050>054-066-281900-
   NORTHEAST IOWA

CITY           SKY/WX    TMP DP  RH WIND       PRES   REMARKS
CEDAR RAPIDS   SUNNY     39  13  34 S12G18    30.27F WCI  32
6HR MIN TEMP:  18; 6HR MAX TEMP:  39;

CHARLES CITY * SUNNY     39  16  38 S13       30.25S WCI  32
CLINTON *      SUNNY     36  12  38 S9        30.35F WCI  29
DECORAH *      SUNNY     32  16  51 SE8       30.26F WCI  25
DUBUQUE        SUNNY     36  10  34 S13       30.29F WCI  27
6HR MIN TEMP:  17; 6HR MAX TEMP:  36;

MONTICELLO *   SUNNY     37  10  32 SE8G16    30.30S WCI  31
OELWEIN *      SUNNY     37  14  38 S9G16     30.27F WCI  31
WATERLOO       SUNNY     40  15  36 SE16      30.26F WCI  31
6HR MIN TEMP:  19; 6HR MAX TEMP:  41;

$$

IAZ064-065-067-068-078-281900-
   EAST CENTRAL IOWA

CITY           SKY/WX    TMP DP  RH WIND       PRES   REMARKS
DAVENPORT      SUNNY     37   9  31 E9        30.32F WCI  30
6HR MIN TEMP:  18; 6HR MAX TEMP:  38;

IOWA CITY      SUNNY     39  14  36 SE7       30.31F WCI  34
6HR MIN TEMP:  20; 6HR MAX TEMP:  40;

MT. PLEASANT * SUNNY     40  13  33 SE5       30.30F
MUSCATINE *    SUNNY     39  12  33 S8G17     30.32F WCI  34
QUAD CITIES    SUNNY     38  10  31 SE6       30.32F WCI  33
6HR MIN TEMP:  17; 6HR MAX TEMP:  38;

$$

IAZ062-063-075>077-085>089-095>099-281900-
   SOUTHEAST IOWA

CITY           SKY/WX    TMP DP  RH WIND       PRES   REMARKS
BURLINGTON     SUNNY     39  14  36 E9        30.30F WCI  33
6HR MIN TEMP:  24; 6HR MAX TEMP:  40;

FAIRFIELD *    SUNNY     41  14  33 SE13G20   30.28F
FORT MADISON * SUNNY     39  18  41 SE9       30.31F WCI  33
KEOKUK *       SUNNY     39  14  35 SE9       30.30F WCI  33
OSKALOOSA *      N/A     41  13  32 SE10G17   30.26F
CENTERVILLE *  SUNNY     43  16  33 SE14G21   30.25F
OTTUMWA        SUNNY     43  13  29 SE10      30.25F
6HR MIN TEMP:  22; 6HR MAX TEMP:  43;

WASHINGTON *   SUNNY     41  16  36 S13       30.29F
$$

ABBREVIATIONS USED IN REMARKS
   TC - TEMPERATURES IN CELSIUS
  WCI - WIND CHILL INDEX
   HX - HEAT INDEX
  VSB - VISIBILITY
$$




USA.gov is the U.S. government's official web portal to all federal, state and local government web resources and services.